STARLINK-3847, 52333

Orbit data source: Space-Track

STARLINK-3847, 52333 is a payload satellite owned by SpaceX/Seattle (US) in LEO that was launched on Fri, 29 Apr 2022 UTC via an FALCON 9 launch vehicle from the Air Force Eastern Test Range (AFETR). Payload-class satellites include a variety of spacecraft equipped with specific instruments for various scientific and technological missions. These include communications satellites like Starlink; space stations such as the ISS; scientific satellites like the Hubble; Earth observation satellites from companies like Planet Labs, Umbra, and HawkEye 360; GPS; miniature CubeSats for education and research; and military/defense satellites.

Loading next visibility...
Identifier
52333, 2022-045C
Orbit
LEO
Country
Flag of USUS
Related business
Manufacturer
SpaceX/Seattle
Mission
Operational Commercial Communications
Bus & Motor
STARLINK, Unknown motor
Mass
297 kg wet, ~275 kg dry
Launch date (UTC)
2022-04-29 (4 years ago)
Launch vehicle
FALCON 9
Launch site
Air Force Eastern Test Range (AFETR)
Object type
Payload
Rocket body
Debris
Shape & HBR
Box + 1 Pan, 10.1 m
Radar Cross Section
11.087 m², Large (>1 m²)

Expand to show TLE details & history
Last TLE update: 6 hours ago

TLE from 6 hours ago
0 STARLINK-3847
1 52333U 22045C   26119.85846769  .00003058  00000-0  21025-3 0  9990
2 52333  53.2179 339.4156 0001483  92.3251 267.7910 15.08823113223353
Epoch: 2026-04-29T20:36Z
TLE epoch observation values (Epoch: 2026-04-29T20:36:11.608Z)
Latitude
-0.0001°
Longitude
172.55377°
Altitude
540.732 km
Speed
7.593 km/s
True Right ascension
22h 37m 39s
True Declination
0° 00' 00"
Sunlit
Object was in daylight at epoch
Visualization orbit readout
Latitude
Unknown
Longitude
Unknown
Altitude
Unknown
Speed
Unknown
Apparent Right ascension
Unknown
Apparent Declination
Unknown
Sunlit
N/A
Visualization observer readout
Local Sidereal Time
10:28:35
Azimuth
Unknown
Elevation
Unknown
Doppler factor
Unknown
Orbital elements
Apogee altitude
541.066 km
Perigee altitude
539.014 km
Semi-major axis
6,918.177 km
Eccentricity
0.00015
Inclination
53.2179°
RAAN
339.4156°
Arg. of periapsis
92.3251°
True anomaly
267.77402°
Mean anomaly
267.791°
Eccentric anomaly
267.78251°
Mean motion
3.77186 °/min
Orbital period
95.44 mins
BSTAR
0.00021025
Loading maneuver chart data...
Computing Atmospheric mass density...
Loading historical data...
Loading historical data...
Loading historical data...
Loading historical data...
Loading historical data...
Loading historical data...
Loading historical data...

Documentation

Showing up to 5 results
|